Tracking 22124 objects as of 24-Jan-2021
HD Live streaming from Space Station
objects crossing your sky now

PALAPA B4

Track PALAPA B4 now!
PALAPA B4 is classified as:


NORAD ID: 21964
Int'l Code: 1992-027A
Perigee: 35,860.2 km
Apogee: 35,917.4 km
Inclination: 11.3 °
Period: 1,441.0 minutes
Semi major axis: 42259 km
RCS: 12.5892 m2 (large)
Launch date: May 14, 1992
Source: Indonesia (INDO)
Launch site: AIR FORCE EASTERN TEST RANGE (AFETR)

Palapa B-4 was an Indonesian communications spacecraft launched by a Delta rocket.
aabbcc
Your satellite tracking list
Your tracking list is empty




NASA's NSSDC Master Catalog

Two Line Element Set (TLE):
1 21964U 92027A   21023.61237104  .00000083  00000-0  00000-0 0  9995
2 21964  11.2891  30.4857 0006776 340.6645 201.8496  0.99933692 27499
Source of the keplerian elements: AFSPC